AMC-4 (GE-4)

Last updated on Dec. 14, 2019, 4:30 a.m. UTC

1 25954U 99060A   19347.80674240  .00000104  00000-0  00000-0 0  9999
2 25954   0.0701 285.5319 0003120 346.8295 325.3780  1.00271897 19790
UTC
Height (km)
Latitude
Longitude
Inclination
Orbital Period
UTC large
Height (km)
Speed (km/s)
/
Latitude / Longitude
Inclination (degrees)
Orbital Period (minutes)
Azimuth
Elevation
Range (km)
Doppler Factor
iOS Compass Heading
iOS Angle

Next 30 passes for location: Hong Kong

Rise time Rise Azimuth (degrees) Set time Set Azimuth (degrees) Duration Max altitude (degrees)

No matching passes for this satellites